TimeEST,TemperatureF,Dew PointF,Humidity,Sea Level PressureIn,VisibilityMPH,Wind Direction,Wind SpeedMPH,Gust SpeedMPH,PrecipitationIn,Events,Conditions,WindDirDegrees,DateUTC
12:15 AM,50.5,40.1,67,30.02,7.0,SSW,19.6,28.8,N/A,,Clear,200,2012-11-22 05:15:00
12:35 AM,50.7,39.0,64,30.02,7.0,SSW,18.4,31.1,N/A,,Clear,210,2012-11-22 05:35:00
12:55 AM,50.5,39.4,66,30.02,7.0,SSW,18.4,25.3,N/A,,Clear,210,2012-11-22 05:55:00
1:15 AM,50.5,39.2,65,30.01,7.0,SSW,20.7,26.5,N/A,,Clear,210,2012-11-22 06:15:00
1:35 AM,50.5,39.9,67,30.01,7.0,SSW,19.6,27.6,N/A,,Clear,210,2012-11-22 06:35:00
1:55 AM,49.3,39.6,69,30.01,7.0,SSW,18.4,24.2,N/A,,Clear,210,2012-11-22 06:55:00
2:15 AM,48.2,40.5,75,30.01,7.0,SSW,18.4,25.3,N/A,,Clear,210,2012-11-22 07:15:00
2:35 AM,48.2,41.4,77,30.02,5.0,SSW,17.3,25.3,N/A,,Haze,210,2012-11-22 07:35:00
2:56 AM,48.2,41.4,77,30.02,5.0,SW,12.7,24.2,N/A,,Haze,220,2012-11-22 07:56:00
3:15 AM,48.2,42.1,79,30.02,5.0,SSW,12.7,20.7,N/A,,Haze,210,2012-11-22 08:15:00
3:35 AM,48.2,42.3,80,30.02,5.0,SSW,15.0,18.4,N/A,,Haze,210,2012-11-22 08:35:00
3:55 AM,48.2,43.0,82,30.01,4.0,SSW,16.1,21.9,N/A,,Haze,210,2012-11-22 08:55:00
4:15 AM,48.2,43.2,83,30.00,4.0,SSW,15.0,19.6,N/A,,Haze,210,2012-11-22 09:15:00
4:35 AM,48.2,43.2,83,29.99,4.0,SSW,11.5,19.6,N/A,,Haze,200,2012-11-22 09:35:00
4:55 AM,48.2,42.8,82,29.99,4.0,SSW,13.8,20.7,N/A,,Haze,200,2012-11-22 09:55:00
5:15 AM,48.2,41.9,79,29.98,5.0,South,16.1,23.0,N/A,,Haze,190,2012-11-22 10:15:00
5:35 AM,48.2,41.2,77,29.97,5.0,SSW,13.8,21.9,N/A,,Haze,200,2012-11-22 10:35:00
5:55 AM,48.2,40.6,75,29.96,7.0,SSW,13.8,19.6,N/A,,Clear,200,2012-11-22 10:55:00
6:15 AM,48.2,39.4,72,29.96,7.0,SSW,13.8,19.6,N/A,,Clear,200,2012-11-22 11:15:00
6:35 AM,48.2,39.6,72,29.95,7.0,South,12.7,20.7,N/A,,Clear,190,2012-11-22 11:35:00
6:55 AM,48.2,39.0,71,29.94,7.0,South,10.4,18.4,N/A,,Clear,190,2012-11-22 11:55:00
7:15 AM,48.2,39.2,71,29.94,7.0,South,10.4,-,N/A,,Clear,180,2012-11-22 12:15:00
7:35 AM,48.2,40.3,74,29.94,7.0,South,9.2,-,N/A,,Clear,180,2012-11-22 12:35:00
7:55 AM,48.2,40.3,74,29.93,5.0,South,10.4,23.0,N/A,,Haze,180,2012-11-22 12:55:00
8:15 AM,48.2,41.2,77,29.92,5.0,South,11.5,-,N/A,,Haze,180,2012-11-22 13:15:00
8:35 AM,48.2,41.4,77,29.92,5.0,South,11.5,-,N/A,,Haze,170,2012-11-22 13:35:00
8:55 AM,48.2,40.5,75,29.92,5.0,South,11.5,16.1,N/A,,Haze,180,2012-11-22 13:55:00
9:15 AM,49.3,41.4,74,29.92,5.0,South,10.4,17.3,N/A,,Haze,190,2012-11-22 14:15:00
9:36 AM,50.7,41.4,70,29.91,7.0,South,18.4,23.0,N/A,,Clear,190,2012-11-22 14:36:00
9:55 AM,53.1,41.7,65,29.91,7.0,SSW,19.6,25.3,N/A,,Clear,200,2012-11-22 14:55:00
10:15 AM,53.1,40.8,63,29.90,7.0,SSW,16.1,24.2,N/A,,Clear,200,2012-11-22 15:15:00
10:35 AM,54.7,40.3,58,29.90,10.0,SSW,18.4,27.6,N/A,,Clear,200,2012-11-22 15:35:00
10:55 AM,54.1,41.2,62,29.89,10.0,SSW,27.6,34.5,N/A,,Clear,210,2012-11-22 15:55:00
11:15 AM,55.0,41.7,61,29.88,10.0,SSW,21.9,28.8,N/A,,Clear,200,2012-11-22 16:15:00
11:35 AM,55.6,40.1,56,29.88,10.0,SSW,20.7,31.1,N/A,,Clear,200,2012-11-22 16:35:00
11:55 AM,55.6,40.3,56,29.87,10.0,SSW,23.0,33.4,N/A,,Clear,200,2012-11-22 16:55:00
12:15 PM,55.6,40.6,57,29.86,10.0,SSW,23.0,34.5,N/A,,Clear,200,2012-11-22 17:15:00
12:35 PM,55.6,40.3,56,29.85,10.0,SSW,23.0,32.2,N/A,,Mostly Cloudy,200,2012-11-22 17:35:00
12:55 PM,55.6,39.0,54,29.83,10.0,SSW,23.0,28.8,N/A,,Scattered Clouds,200,2012-11-22 17:55:00
1:15 PM,55.9,38.5,52,29.81,10.0,SSW,23.0,31.1,N/A,,Scattered Clouds,200,2012-11-22 18:15:00
1:35 PM,58.1,40.6,52,29.81,10.0,South,13.8,25.3,N/A,,Scattered Clouds,190,2012-11-22 18:35:00
1:55 PM,55.6,40.1,56,29.79,10.0,SSW,19.6,33.4,N/A,,Clear,200,2012-11-22 18:55:00
2:15 PM,55.8,39.7,55,29.78,10.0,South,20.7,32.2,N/A,,Clear,190,2012-11-22 19:15:00
2:35 PM,55.8,39.6,55,29.77,10.0,South,25.3,34.5,N/A,,Scattered Clouds,190,2012-11-22 19:35:00
2:55 PM,55.6,40.5,57,29.76,10.0,South,17.3,23.0,N/A,,Mostly Cloudy,180,2012-11-22 19:55:00
3:15 PM,55.6,40.8,58,29.75,10.0,South,16.1,23.0,N/A,,Mostly Cloudy,190,2012-11-22 20:15:00
3:35 PM,55.6,41.7,60,29.74,10.0,South,18.4,25.3,N/A,,Mostly Cloudy,180,2012-11-22 20:35:00
3:55 PM,55.6,41.2,58,29.74,10.0,South,15.0,28.8,N/A,,Overcast,190,2012-11-22 20:55:00
4:15 PM,55.6,40.5,57,29.75,10.0,SSW,19.6,28.8,N/A,,Overcast,200,2012-11-22 21:15:00
4:35 PM,55.6,39.4,55,29.74,10.0,South,20.7,31.1,N/A,,Overcast,190,2012-11-22 21:35:00
4:55 PM,55.6,39.2,54,29.73,10.0,SSW,25.3,40.3,N/A,,Scattered Clouds,200,2012-11-22 21:55:00
5:15 PM,55.6,39.6,55,29.73,10.0,SSW,24.2,38.0,N/A,,Scattered Clouds,200,2012-11-22 22:15:00
5:35 PM,55.6,40.1,56,29.73,10.0,SSW,24.2,38.0,N/A,,Scattered Clouds,200,2012-11-22 22:35:00
5:55 PM,55.6,40.1,56,29.73,10.0,SSW,21.9,36.8,N/A,,Clear,200,2012-11-22 22:55:00
6:15 PM,55.6,40.5,57,29.72,10.0,SSW,24.2,34.5,N/A,,Clear,200,2012-11-22 23:15:00
6:36 PM,55.6,40.6,57,29.73,10.0,SSW,24.2,39.1,N/A,,Clear,200,2012-11-22 23:36:00
6:55 PM,55.6,41.0,58,29.72,10.0,SSW,28.8,36.8,N/A,,Mostly Cloudy,200,2012-11-22 23:55:00
7:15 PM,55.6,41.9,60,29.72,10.0,SSW,24.2,33.4,N/A,,Mostly Cloudy,200,2012-11-23 00:15:00
7:35 PM,55.6,42.8,62,29.72,10.0,SSW,21.9,33.4,N/A,,Overcast,200,2012-11-23 00:35:00
7:55 PM,53.8,43.3,68,29.72,10.0,SSW,25.3,36.8,N/A,,Overcast,200,2012-11-23 00:55:00
8:15 PM,53.1,44.8,73,29.72,10.0,SSW,23.0,39.1,N/A,,Mostly Cloudy,210,2012-11-23 01:15:00
8:35 PM,53.1,46.0,77,29.71,10.0,SSW,25.3,34.5,N/A,,Scattered Clouds,210,2012-11-23 01:35:00
8:55 PM,53.1,46.6,79,29.70,10.0,SSW,25.3,31.1,N/A,,Mostly Cloudy,210,2012-11-23 01:55:00
9:15 PM,53.1,46.9,80,29.69,10.0,SSW,23.0,33.4,N/A,,Mostly Cloudy,200,2012-11-23 02:15:00
9:35 PM,53.1,46.8,79,29.68,7.0,SSW,23.0,29.9,N/A,,Overcast,210,2012-11-23 02:35:00
9:55 PM,53.1,46.4,78,29.68,7.0,SSW,24.2,36.8,N/A,,Overcast,210,2012-11-23 02:55:00
10:15 PM,53.1,46.0,77,29.67,7.0,SSW,26.5,35.7,N/A,,Overcast,210,2012-11-23 03:15:00
10:35 PM,53.1,46.0,77,29.66,7.0,SSW,21.9,33.4,N/A,,Overcast,210,2012-11-23 03:35:00
10:55 PM,53.1,46.4,78,29.65,7.0,SSW,23.0,35.7,N/A,,Overcast,210,2012-11-23 03:55:00
11:15 PM,53.1,46.4,78,29.65,7.0,SSW,21.9,34.5,N/A,,Overcast,210,2012-11-23 04:15:00
11:35 PM,53.1,46.8,79,29.63,7.0,SSW,18.4,25.3,N/A,,Overcast,210,2012-11-23 04:35:00
11:55 PM,53.1,47.1,80,29.63,7.0,SW,23.0,28.8,N/A,,Overcast,220,2012-11-23 04:55:00